Location: Hoyos del Collado
(40.3594°N, 5.2003°W)
Time: 11:47:28
(UTC+00:00)

Cosmos 1844 Rocket - Pass Details

Date: 18 April 2024
Orbit: 825 x 842 km, 71.0° (Epoch: 27 May)

Event Time Altitude Azimuth Distance (km) Brightness Sun altitude
Rises 23:26:51 0° 344° (NNW) 3,386 6.8 -36.9°
Reaches altitude 10° 23:29:33 10° 354° (N) 2,445 5.8 -37.1°
Enters shadow 23:32:33 26° 20° (NNE) 1,595 4.5 -37.2°
